Location: Henham
(51.9333°N, 0.2500°E)
Time: 04:50:11
(UTC+00:00)

STARLINK-41 - Pass Details

Date: 23 October 2019
Orbit: 549 x 551 km, 53.0° (Epoch: 16 November)

Event Time Altitude Azimuth Distance (km) Brightness Sun altitude
Rises 18:35:38 0° 282° (WNW) 2,720 8.8 -17.1°
Reaches altitude 10° 18:37:52 10° 283° (WNW) 1,825 7.5 -17.4°
Maximum altitude 18:42:01 89° 6° (N) 555 3.5 -18.1°
Enters shadow 18:43:18 44° 102° (ESE) 770 3.9 -18.3°
